BEIDOU-3 G2 (45344 NORAD) Tracking and Keplerian Element Data

This shows tracking and keplerian element data for the satellite.

Feedback or suggestion? Click here.




ElementValue
Catalog45344
NameBEIDOU-3 G2
Epoch Orbit148
Epoch Day187.15797431
Epoch Year2020
RAAN328.4138
Inclination2.9316
Eccentricity0.0002862
Argument of Perigee131.1156
Mean Anonmoly320.9979
Mean Motion1.00271237
Decay Rate-1.48E-06
L11 45344U 20017A 20187.15797431 -.00000148 00000-0 00000+0 0 9998
L22 45344 2.9316 328.4138 0002862 131.1156 320.9979 1.00271237 1483

Live tracking and technical data element details for BEIDOU-3 G2 (NORAD 45344). BEIDOU-3 G2 can be tracked NOW for your location showing map with azimuth and elevation plus other details from your city location.

Track the satellite on the map from your city or location and see movement details for azimuth, elevation, latitude, longitude, range, height, and movement on the map or in text.







IsCatalogInMostPopularTable: catalog: 45344, numindb: 26
Update: records affected: 1



GetName: 45344 BEIDOU-3 G2

Hit Count: updated at: Mon, 06 Jul 2020 06:01:04 GMT